Weather History for CWYY - February, 2013

Change the Weather History Date:

Sunday, February 3, 2013

  Actual Average Record
Temperature  
Mean Temperature 26 °F -  
Max Temperature 35 °F - - ()
Min Temperature 18 °F - - ()
Degree Days  
Heating Degree Days 38    
Moisture  
Dew Point 27 °F    
Average Humidity 94    
Maximum Humidity 99    
Minimum Humidity 79    
Precipitation  
Precipitation 0.00 in - - ()
Sea Level Pressure  
Sea Level Pressure 30.25 in    
Wind  
Wind Speed 2 mph ()    
Max Wind Speed 6 mph    
Max Gust Speed -    
T = Trace of Precipitation, MM = Missing Value Source: Averaged Metar Reports

Daily Weather History Graph

Daily Weather History Graph

Search for Another Location

Airport or City:

Trip Planner

Search our weather history database for the weather conditions in past years. The results will help you decide how hot, cold, wet, or windy it might be!

Date:

Astronomy

Feb. 03, 2013 Rise Set
Actual Time 7:24 AM PST 4:58 PM PST
Civil Twilight 6:51 AM PST 5:32 PM PST
Nautical Twilight 6:13 AM PST 6:10 PM PST
Astronomical Twilight 5:36 AM PST 6:47 PM PST
Moon 1:00 AM PST (2/3) 10:36 AM PST (2/3)
Length of Visible Light 10h 41m
Length of Day
9h 33m
Waning Gibbous, 47% of the Moon is Illuminated
Feb 3
Waning Gibbous
Feb 9
New
Feb 17
First Quarter
Feb 25
Full
Mar 4
Last Quarter

Hourly Weather History & Observations

Time (PST) Temp. Windchill Dew Point Humidity Pressure Visibility Wind Dir Wind Speed Gust Speed Precip Events Conditions
12:00 AM 23.4 °F - 22.8 °F 98% 30.35 in - SSE 2.3 mph - N/A   Unknown
1:00 AM 23.2 °F - 22.6 °F 98% 30.34 in - ESE 2.3 mph - N/A   Unknown
2:00 AM 23.4 °F - 23.0 °F 99% 30.32 in - SE 2.3 mph - N/A   Unknown
3:00 AM 23.2 °F - 22.6 °F 98% 30.30 in - SE 1.2 mph - N/A   Unknown
5:00 AM 23.0 °F - 22.5 °F 98% 30.29 in - North 1.2 mph - N/A   Unknown
6:00 AM 22.6 °F - 22.1 °F 98% 30.29 in - SSE 2.3 mph - N/A   Unknown
7:00 AM 22.6 °F - 22.1 °F 98% 30.29 in - SSE 2.3 mph - N/A   Unknown
8:00 AM 23.2 °F - 22.6 °F 98% 30.29 in - East 1.2 mph - N/A   Unknown
9:00 AM 23.9 °F - 23.5 °F 99% 30.29 in - South 1.2 mph - N/A   Unknown
10:00 AM 25 °F - 25 °F 99% 30.29 in - East 1.2 mph - -  
10:00 AM 25.2 °F - 24.8 °F 99% 30.29 in - East 1.2 mph - N/A   Unknown
11:00 AM 26.4 °F - 26.2 °F 99% 30.27 in - ESE 1.2 mph - N/A   Unknown
12:00 PM 27.1 °F - 27.0 °F 99% 30.26 in - SW 2.3 mph - N/A   Unknown
1:00 PM 29.7 °F - 29.5 °F 99% 30.24 in - SW 1.2 mph - N/A   Unknown
2:00 PM 31.1 °F - 28.4 °F 90% 30.25 in - SSE 2.3 mph - N/A   Unknown
3:00 PM 33.1 °F 28.7 °F 29.7 °F 87% 30.21 in - SE 4.6 mph - N/A   Unknown
4:00 PM 35 °F - 31 °F 79% 30.21 in - South 5.8 mph - -  
4:00 PM 34.7 °F 29.6 °F 30.9 °F 86% 30.21 in - South 5.8 mph - N/A   Unknown
5:00 PM 33.8 °F 29.6 °F 30.7 °F 89% 30.22 in - South 4.6 mph - N/A   Unknown
6:00 PM 32.9 °F 28.5 °F 30.4 °F 90% 30.21 in - SSE 4.6 mph - N/A   Unknown
7:00 PM 34.2 °F 29.0 °F 31.6 °F 90% 30.20 in - ESE 5.8 mph - N/A   Unknown
9:00 PM 34.3 °F 30.2 °F 31.6 °F 90% 30.19 in - SE 4.6 mph - N/A   Unknown
10:00 PM 33 °F - 31 °F 89% 30.17 in - South 1.2 mph - -  
10:00 PM 33.3 °F - 30.9 °F 91% 30.17 in - South 1.2 mph - N/A   Unknown
11:00 PM 34.0 °F - 32.0 °F 92% 30.18 in - SE 2.3 mph - N/A   Unknown